Theta_e
363 357 358 359 358 355 345 336 316 323 318 311 312 315 314 327 328 323 321 326 323 330 331 334 333 331 324 321 323 324 325 318 317 310 305 316 348 349 350 352 354 355 356 357 358 360 361 363 363 364 364 364 364 363 363 364 364 365 365 364 364 364 364 364 364 364 364 364 364 364 364 365 364 363 363 363 363 363 362 361 361 361 360 360 360 359 359 360 359 359 359 360 360 360 361 360 360
360 358 357 357 350 344 332 335 319 316 316 312 313 319 319 325 325 320 318 324 325 327 331 331 333 333 330 328 328 327 322 329 332 322 336 346 350 351 354 355 355 354 356 358 359 359 360 362 363 364 364 364 364 363 363 364 363 364 364 364 363 364 363 363 363 363 364 365 365 365 364 363 364 363 363 362 362 361 361 360 360 360 360 359 359 359 359 359 359 359 360 360 360 361 360 360 361
358 355 353 354 346 338 333 329 313 312 310 308 313 317 326 321 318 320 323 325 329 331 335 333 332 330 326 325 320 320 313 332 338 340 340 348 344 348 355 356 356 356 357 358 359 359 359 361 364 364 364 364 364 364 364 364 364 363 364 364 364 364 363 363 363 363 363 363 364 364 364 362 362 363 362 361 360 360 360 360 360 359 358 359 360 360 360 359 360 360 359 359 359 359 359 357 359
358 359 350 347 333 336 322 316 309 307 306 307 310 319 319 320 321 323 326 329 330 334 335 333 325 332 324 318 320 327 326 330 336 340 339 343 344 352 355 357 359 358 358 359 359 359 359 362 363 364 364 364 364 364 364 364 364 364 363 363 363 363 363 364 363 363 363 363 363 364 363 363 362 362 361 359 359 359 359 358 358 359 360 360 360 359 359 359 358 358 358 357 358 358 358 359 359
358 359 355 342 332 324 319 313 311 308 306 311 310 317 320 321 321 323 326 330 331 333 333 331 325 331 331 325 329 320 320 332 338 343 342 347 355 355 356 358 358 358 358 359 359 359 359 363 363 364 363 362 364 363 364 363 363 363 363 363 363 363 363 363 362 362 362 362 363 363 363 362 361 361 360 358 358 358 358 359 359 360 359 359 359 357 357 357 358 358 358 358 358 360 360 360 360
354 352 353 346 329 336 322 313 313 312 313 315 311 315 320 323 322 324 327 331 333 335 332 329 325 326 327 330 334 324 329 327 337 341 345 347 354 356 356 359 357 357 358 359 359 358 359 364 363 363 364 362 364 364 364 363 363 363 363 362 363 363 363 363 362 362 362 362 362 362 362 361 361 360 357 357 358 358 359 357 358 358 358 356 355 357 356 356 357 359 358 359 360 360 360 360 360
346 343 340 340 334 330 314 312 314 315 318 319 315 317 321 323 325 326 326 326 329 331 334 330 331 326 321 327 329 334 339 341 340 341 348 352 355 355 356 356 356 355 357 358 359 359 360 365 364 364 363 363 363 363 363 363 362 362 362 362 363 363 362 362 362 361 361 361 362 361 361 360 359 358 357 357 358 357 357 357 357 355 355 358 359 359 360 361 361 363 362 362 362 362 362 362 361
356 341 337 324 319 318 311 312 314 315 316 322 322 320 322 325 327 326 324 323 323 324 330 332 332 324 323 332 320 332 341 345 342 349 352 354 355 355 355 355 353 354 357 358 359 359 364 365 365 365 364 364 364 363 362 363 362 362 362 361 362 362 361 362 362 361 361 361 360 360 359 359 358 357 358 357 356 356 354 354 354 355 359 361 361 361 362 362 361 362 361 361 361 361 361 362 362
350 343 339 320 313 315 312 312 313 320 319 322 324 328 331 327 328 325 323 325 326 328 329 330 328 320 321 324 322 330 337 344 348 354 352 353 354 355 354 353 352 353 356 358 359 360 362 366 366 366 365 364 363 364 363 363 362 362 362 362 361 361 361 361 361 361 360 360 358 358 358 357 357 357 358 356 355 356 359 360 360 360 361 361 361 361 361 360 360 359 360 360 361 361 362 362 362
342 339 325 316 314 310 310 311 310 315 318 322 323 323 327 327 325 327 324 324 325 329 329 333 330 322 323 320 323 330 334 345 349 349 351 353 354 353 352 353 353 353 354 357 358 359 361 364 367 366 365 365 363 363 363 363 362 361 361 360 361 360 361 361 360 359 359 358 358 357 357 356 356 355 355 354 359 360 360 360 361 361 361 360 359 358 360 359 358 359 360 361 361 362 361 362 362
331 334 335 317 309 307 305 309 312 317 319 323 323 327 328 328 327 325 326 326 329 327 329 330 324 323 325 323 324 332 344 346 346 345 350 352 353 351 350 353 354 354 354 356 357 359 361 362 366 366 365 365 364 364 364 364 363 362 362 361 361 361 360 360 359 359 357 356 356 355 355 355 357 356 358 358 358 359 359 361 360 358 356 358 358 358 358 359 358 360 361 361 362 362 362 362 362
330 325 319 310 310 309 310 310 313 315 319 320 320 327 330 328 329 325 326 324 326 327 325 327 322 327 322 322 325 333 341 344 345 348 351 352 350 350 351 353 354 354 355 356 358 358 360 362 363 364 365 365 364 363 364 363 362 361 362 361 361 360 359 358 357 356 356 355 355 356 358 357 358 358 358 359 359 359 358 358 357 357 353 355 358 359 359 358 359 358 360 362 362 361 361 361 362
333 327 316 312 312 316 314 311 312 318 315 317 319 325 332 329 327 326 326 326 326 324 324 330 330 327 319 321 326 333 338 342 346 349 351 350 349 351 353 353 353 354 356 357 357 358 359 360 360 363 362 364 364 364 363 363 362 361 362 361 361 359 359 357 356 356 356 356 357 358 358 359 359 358 359 359 359 356 355 355 356 355 354 354 357 358 360 359 359 361 361 362 360 361 361 361 361
334 329 318 311 315 313 311 312 310 314 311 317 323 329 332 329 330 329 329 325 326 323 328 332 334 330 325 324 327 327 334 342 347 349 350 348 350 352 352 353 352 353 355 356 356 358 358 359 360 360 361 361 360 363 363 364 363 362 361 361 359 358 358 357 356 356 357 357 358 359 358 358 359 358 358 357 355 354 352 353 356 357 356 355 358 359 361 362 361 361 360 360 360 360 360 361 361
335 335 319 313 311 312 313 311 315 312 310 318 324 329 331 335 333 331 329 325 327 331 339 341 335 324 316 321 318 326 333 341 347 349 348 349 350 351 351 352 353 353 355 356 356 357 357 358 359 357 360 358 358 358 358 361 363 361 360 359 358 358 357 358 357 357 358 359 360 359 359 359 360 359 355 354 353 354 356 357 358 357 357 359 361 361 361 361 361 361 360 359 360 361 361 361 361
342 331 319 313 310 310 313 314 315 312 313 321 325 330 329 331 335 330 331 331 329 338 337 328 336 325 326 324 323 332 337 344 347 348 347 348 349 350 351 352 352 354 354 355 355 356 357 355 356 356 355 356 356 356 356 357 361 361 360 360 359 358 358 357 357 358 359 359 360 360 360 360 360 359 356 353 355 357 359 358 359 359 360 362 362 362 361 361 361 361 360 360 360 359 360 360 360
343 331 317 310 310 312 313 316 317 311 317 322 330 330 325 326 336 334 339 338 330 331 333 335 335 337 331 330 334 338 342 349 350 347 346 345 346 346 348 349 350 352 353 353 353 354 355 354 353 353 354 355 355 355 354 354 359 360 360 359 358 357 358 357 359 359 359 359 358 360 358 354 355 355 354 354 358 359 359 361 360 360 362 362 362 360 360 360 360 359 357 357 355 353 354 352 350
336 324 314 310 311 313 318 318 320 321 320 322 327 330 327 323 331 334 337 334 333 333 332 336 338 338 336 338 340 342 345 345 345 343 343 342 344 343 344 347 348 347 349 351 353 353 353 352 352 352 353 353 353 354 354 355 358 357 349 347 351 355 358 359 356 353 354 351 355 353 350 354 354 352 353 357 358 359 360 362 361 361 361 362 361 361 361 360 357 355 352 348 349 349 346 341 343
331 321 315 310 314 319 324 324 325 322 321 324 327 330 328 326 332 334 329 326 329 329 330 333 333 335 337 338 340 342 344 343 343 342 341 341 341 341 342 345 346 346 347 350 351 352 352 351 352 353 352 352 353 353 354 356 354 348 349 349 351 357 356 357 351 354 348 349 349 350 353 352 352 354 355 359 361 362 362 361 362 362 361 361 361 361 358 355 351 349 348 347 347 345 337 337 337
336 323 315 314 320 322 324 327 326 326 326 324 326 328 329 328 332 334 329 326 327 326 326 328 330 331 332 336 339 341 342 342 342 341 341 341 341 342 341 342 344 345 346 348 349 351 351 350 351 352 352 352 352 352 354 355 349 346 348 349 351 349 348 351 350 350 348 348 348 348 351 352 355 354 357 359 360 355 354 357 356 361 363 362 359 349 349 351 349 347 347 346 339 338 335 334 336
334 326 316 318 320 320 321 327 329 328 329 326 326 329 327 329 332 332 328 325 324 327 329 329 329 332 331 336 338 339 340 340 340 341 340 340 341 342 342 343 344 345 346 348 350 349 349 350 350 351 353 352 352 353 354 353 349 346 347 348 348 345 345 348 348 348 349 348 348 349 349 352 353 353 350 348 350 352 347 342 344 348 347 342 350 338 339 339 341 337 336 337 333 335 333 334 334
334 329 330 327 323 318 322 327 330 329 330 327 327 325 326 332 332 331 328 324 322 327 331 331 332 336 333 335 337 339 339 339 339 339 340 340 340 340 342 342 344 345 347 346 347 348 349 350 351 351 352 352 353 352 353 355 355 346 346 347 347 347 347 348 351 349 349 350 350 350 354 351 345 340 339 339 340 341 339 338 338 339 338 338 343 336 336 337 336 335 334 333 332 332 332 333 333
324 325 329 332 331 322 324 327 329 330 327 326 325 328 330 330 328 332 330 328 329 333 333 334 335 338 336 338 338 337 338 338 338 338 339 339 340 340 341 342 342 342 345 345 347 348 349 350 350 352 352 352 352 353 353 356 352 350 348 350 346 346 347 348 348 348 349 347 346 349 341 339 338 337 336 336 336 338 337 337 335 335 334 334 338 335 334 335 334 333 332 331 330 331 331 332 333
330 323 317 319 329 326 326 328 329 330 328 326 329 331 328 328 324 330 329 333 334 334 335 334 337 339 337 336 337 337 337 338 338 339 340 340 341 340 341 341 343 344 344 344 345 347 350 349 350 352 352 352 352 353 352 353 351 350 351 355 350 354 351 347 345 347 345 343 346 345 344 338 337 336 337 336 336 338 339 338 337 335 333 333 336 336 333 332 331 331 331 330 329 331 330 330 334
330 327 330 325 323 324 326 328 329 329 329 330 331 327 327 329 328 328 329 333 335 335 339 338 338 337 336 336 337 336 337 337 337 339 340 341 341 342 342 342 343 343 343 343 345 346 348 350 351 352 352 353 352 353 352 352 351 350 354 351 347 353 346 346 345 343 340 343 342 344 344 339 339 339 337 337 337 337 336 336 335 334 334 333 334 333 334 331 330 330 330 329 329 331 330 331 338
333 330 329 320 322 324 326 327 328 329 332 331 327 325 327 328 330 327 329 332 335 338 338 338 337 336 334 334 337 336 336 336 337 337 338 339 340 340 340 341 342 342 343 344 345 346 348 351 351 351 352 353 353 353 351 350 350 350 351 350 348 355 346 347 342 339 339 339 340 342 345 340 339 339 337 336 334 333 332 332 332 331 331 333 331 331 334 330 330 329 330 330 329 331 331 332 337
330 332 332 326 321 324 326 326 325 328 330 328 326 324 325 325 327 321 328 331 334 336 337 337 336 334 335 335 336 337 336 336 336 337 338 337 337 338 339 341 342 342 345 344 345 346 350 351 351 352 353 356 353 352 351 350 351 349 351 349 351 347 348 344 341 339 339 339 340 340 341 345 339 339 336 334 332 331 331 330 330 330 330 331 331 330 331 332 330 329 330 331 330 331 331 332 336
327 332 325 320 320 321 321 325 323 326 326 327 327 324 324 326 324 323 327 328 334 334 335 336 335 335 335 335 335 337 337 337 335 336 335 335 335 336 338 340 342 342 343 344 346 348 350 350 351 352 353 355 353 352 353 349 349 350 351 349 350 348 345 339 339 340 341 339 339 338 339 340 343 338 335 333 331 331 330 330 330 330 330 330 332 329 329 328 330 329 330 332 331 331 330 333 337
320 321 315 319 318 317 318 320 321 325 323 326 327 324 321 320 320 327 331 334 333 333 334 335 335 335 335 335 336 336 336 336 334 335 336 337 338 338 338 342 343 342 345 346 348 350 350 350 351 351 353 354 352 351 351 349 349 351 350 350 349 345 341 339 339 338 338 339 338 337 337 339 340 337 336 336 336 329 329 329 329 331 329 330 331 331 328 326 327 326 328 332 334 331 331 334 336
321 319 315 318 312 310 316 322 322 322 322 325 325 308 312 318 324 326 333 334 333 332 333 335 334 334 335 335 334 335 335 335 333 335 336 337 338 338 338 341 344 344 344 347 349 349 351 351 352 352 352 352 352 351 351 349 350 350 351 351 347 340 339 339 341 339 341 338 337 336 336 337 334 333 331 331 331 330 330 329 328 328 328 328 327 328 325 325 325 325 330 328 334 330 329 333 333
314 316 314 308 308 307 314 319 319 319 321 325 323 309 311 314 318 324 333 335 333 330 332 334 334 334 334 334 333 333 334 335 335 336 337 338 339 339 338 341 344 344 346 346 348 349 352 351 352 351 353 352 353 351 351 350 351 351 350 345 340 339 339 338 337 337 336 336 336 335 335 336 334 333 332 330 329 330 329 329 329 328 329 328 324 325 325 325 324 325 331 327 327 327 327 333 331
312 309 304 305 308 306 311 320 318 317 320 324 320 309 312 316 318 318 327 334 332 329 331 333 333 333 333 333 333 332 333 335 335 336 337 339 340 340 339 340 343 344 345 346 348 351 350 350 353 351 353 351 351 351 349 351 351 350 347 343 339 340 338 337 336 337 336 335 335 334 336 336 332 331 330 329 328 328 328 328 328 328 329 328 326 325 327 325 323 326 327 327 325 324 327 327 330
305 308 303 304 305 306 310 315 320 319 320 323 317 311 310 312 316 321 325 333 332 329 330 331 332 332 333 333 333 333 332 333 334 335 337 338 340 341 341 341 343 344 345 346 348 350 350 350 353 351 351 350 351 350 349 351 350 347 342 339 338 338 336 336 337 336 334 333 333 332 334 335 332 331 331 329 327 326 326 325 324 326 329 326 325 324 324 327 323 326 326 331 325 323 323 324 328
298 306 305 305 306 306 305 310 314 319 320 316 319 313 314 316 316 327 331 332 331 329 329 331 331 332 332 332 333 332 331 331 332 333 336 338 339 341 342 346 344 344 345 347 349 350 349 350 351 351 352 351 351 350 348 350 348 343 339 338 341 336 337 337 337 335 333 332 331 331 332 335 333 331 330 330 330 330 324 323 323 325 328 325 324 324 324 326 325 325 325 326 326 324 323 323 327
298 299 302 304 306 307 308 306 311 318 318 315 315 315 315 317 319 325 330 332 331 329 329 330 331 331 331 331 332 332 332 331 332 334 336 338 339 341 342 344 344 345 345 347 349 350 350 350 351 352 352 351 350 349 349 347 342 339 338 337 336 336 336 336 335 334 333 332 331 332 333 333 335 329 329 330 328 325 324 323 324 325 327 324 323 323 324 327 327 326 324 322 325 326 324 324 324
302 302 302 304 302 301 303 309 314 318 315 314 313 313 315 317 318 318 327 331 330 330 330 329 331 331 330 331 331 331 332 332 334 335 336 339 339 340 341 344 345 345 345 347 348 350 350 350 350 351 351 350 349 348 346 341 338 337 334 335 335 336 335 338 334 334 334 334 335 332 330 329 331 330 326 327 329 326 323 323 324 326 326 324 323 323 323 324 324 324 326 326 320 324 325 325 327
304 302 302 300 301 302 305 306 311 319 315 314 315 316 315 316 318 317 322 329 329 329 329 328 329 330 330 330 330 331 331 332 334 334 336 339 340 341 342 344 345 345 345 347 347 349 349 349 349 349 350 349 348 344 341 338 336 334 334 333 332 333 334 334 334 333 333 333 332 330 329 329 328 331 328 325 323 330 324 323 323 323 324 324 323 323 323 325 326 325 324 327 323 321 322 323 324
303 300 298 299 298 297 303 302 313 318 315 312 315 314 315 316 318 318 320 326 326 328 328 328 328 330 330 330 330 331 332 334 333 333 335 339 340 341 341 342 345 342 344 346 347 348 349 350 349 349 349 348 347 344 341 339 337 335 333 332 332 333 334 332 329 330 331 332 330 329 329 327 327 330 332 328 326 323 323 322 322 322 323 325 324 324 325 327 322 322 322 322 322 321 320 322 323
301 299 297 295 296 298 302 301 311 316 314 309 312 312 314 316 318 317 318 321 324 327 329 329 329 329 329 330 330 331 331 331 331 333 336 338 340 340 341 342 343 344 344 345 348 349 348 349 349 349 349 348 347 344 340 338 337 337 335 334 333 333 334 334 331 333 332 328 328 328 327 325 325 325 327 329 324 323 322 321 321 321 321 325 320 320 320 321 321 320 321 321 319 321 322 323 324
298 296 295 294 297 296 295 297 311 315 312 307 309 310 311 312 313 315 318 320 322 324 327 329 329 329 328 330 331 331 331 330 329 331 335 338 339 340 341 341 342 344 344 345 347 348 348 349 348 348 348 348 347 344 342 338 338 337 337 335 335 333 330 331 329 328 327 325 325 326 327 325 324 324 325 325 322 321 320 320 320 320 320 323 320 319 320 319 320 320 319 323 320 317 316 319 324
296 297 296 295 296 296 296 296 298 308 312 309 303 303 301 303 308 311 314 319 319 321 323 324 326 328 329 329 330 331 331 331 330 331 335 338 339 339 340 341 342 343 343 344 347 348 349 348 349 348 348 348 346 345 340 338 338 335 335 333 332 328 327 325 324 324 325 327 325 324 325 325 324 324 324 324 326 320 320 320 320 320 321 321 320 319 319 319 319 319 318 318 317 317 316 317 320
293 296 298 299 298 297 296 296 299 295 302 309 307 295 293 298 297 304 311 311 314 319 318 319 322 324 323 324 326 329 332 332 331 331 334 337 340 340 341 341 341 342 343 344 347 349 349 349 349 348 348 348 346 342 338 338 336 333 330 327 324 323 321 321 321 321 323 323 321 325 325 325 324 323 323 323 325 323 321 321 321 321 321 322 322 319 319 320 321 320 319 317 316 317 317 316 316
293 296 298 297 297 296 295 295 293 292 293 296 308 299 292 296 297 301 305 308 311 313 315 318 320 321 322 323 323 325 328 330 331 331 333 335 339 340 341 341 341 341 344 345 347 349 349 349 349 348 348 348 347 341 338 339 334 333 331 328 326 323 321 322 324 324 322 322 324 323 323 324 323 322 322 322 323 324 321 321 322 322 323 323 325 319 318 318 319 322 322 318 317 320 316 314 313
293 294 298 300 299 297 296 295 293 292 297 297 299 299 294 293 299 299 304 308 310 311 313 314 317 319 320 322 321 322 326 329 330 330 331 335 337 340 340 342 342 342 345 346 346 348 348 349 348 348 348 349 347 340 338 338 334 332 331 329 327 324 323 322 324 323 323 325 322 322 322 322 323 322 322 322 323 325 323 321 322 322 323 327 324 319 319 318 318 321 322 318 320 318 315 314 313
296 298 300 298 297 296 295 295 293 292 294 291 292 297 298 292 295 298 308 306 307 310 312 314 315 317 319 321 320 321 325 328 330 329 330 333 335 339 342 342 344 344 346 346 346 348 349 349 349 348 348 348 347 341 338 337 336 333 331 328 327 325 325 325 326 327 324 324 320 321 321 321 322 323 324 323 324 326 328 322 321 322 323 325 327 321 320 319 318 317 317 315 315 316 319 317 314
296 296 297 295 296 299 296 294 296 290 290 289 293 292 291 287 289 299 305 307 307 310 313 315 316 317 317 318 319 321 324 326 328 330 330 332 335 338 341 344 345 345 346 348 347 348 348 348 348 348 347 348 347 341 338 336 336 335 331 328 326 324 327 325 324 322 321 320 320 320 320 321 322 323 322 322 322 323 324 325 323 323 325 328 327 320 320 320 319 318 318 316 315 314 316 315 314
299 299 299 294 292 293 296 291 290 290 289 286 291 292 290 287 290 300 305 309 310 312 314 315 315 316 318 319 320 321 323 325 326 328 329 331 335 338 340 342 344 346 346 347 347 347 348 347 347 347 347 348 347 342 337 335 335 334 331 328 326 325 325 323 321 320 319 319 319 319 319 321 322 322 322 321 321 323 326 329 324 324 326 328 323 320 320 320 319 317 316 316 315 313 311 313 315
300 298 296 293 295 291 293 288 288 289 281 287 289 290 290 288 288 298 306 310 312 312 312 314 314 315 318 319 320 322 323 324 325 326 327 330 334 337 339 340 343 345 346 346 347 347 347 347 347 346 346 347 347 344 338 335 335 333 332 329 328 326 324 322 320 318 318 318 318 318 320 321 320 320 321 321 322 323 324 323 325 321 322 319 320 320 321 320 319 318 316 316 314 315 316 317 313
295 294 293 292 284 285 287 284 288 285 286 293 291 294 294 290 289 303 307 315 320 323 321 316 315 316 318 319 320 322 324 324 325 325 326 329 333 335 337 339 342 344 345 346 346 346 346 346 346 345 345 346 346 345 338 336 335 333 332 330 329 327 324 323 321 319 318 318 318 319 319 319 319 319 320 320 321 322 322 319 320 320 321 323 321 321 321 320 319 318 317 315 315 314 314 314 313
294 293 288 288 286 281 282 279 283 283 288 291 294 296 293 292 299 302 310 319 323 328 326 324 325 321 319 319 321 322 323 324 325 325 326 329 332 335 338 339 341 343 345 346 346 346 346 346 346 345 345 346 346 344 340 337 335 335 334 332 329 327 324 323 321 319 318 319 319 319 320 319 319 319 319 320 321 324 322 323 321 321 322 324 323 322 322 322 319 318 317 317 316 315 315 314 314
294 292 295 293 284 284 285 282 285 287 286 290 290 294 291 295 301 309 313 316 325 331 333 332 334 329 327 326 322 322 322 323 324 326 326 328 332 335 338 339 341 342 345 346 346 346 346 346 346 346 345 345 345 344 340 337 335 335 334 333 329 327 325 323 322 321 320 320 320 320 320 319 319 319 320 321 325 322 322 321 322 321 319 320 321 321 320 320 321 322 321 320 319 316 317 317 313
293 292 294 292 292 290 291 285 285 285 288 288 291 294 294 296 305 311 314 318 327 333 333 335 333 334 331 329 327 325 324 324 325 326 326 327 332 336 338 340 341 342 344 345 346 347 346 346 346 345 344 345 345 344 341 337 336 335 334 332 329 328 327 325 325 325 323 322 321 321 321 319 319 320 322 323 323 322 322 323 321 318 319 321 322 321 321 320 320 319 319 319 319 320 317 316 315
293 294 293 293 295 295 292 297 292 290 285 286 289 296 297 304 310 311 314 316 320 329 332 333 334 333 330 329 328 327 326 325 326 327 327 329 331 336 339 341 342 342 343 344 346 347 347 346 344 344 345 345 344 344 340 337 336 335 333 331 329 327 325 324 324 324 324 323 323 322 322 321 320 321 322 324 322 322 320 319 319 319 320 320 321 322 320 320 319 319 318 319 319 319 320 316 315
294 291 292 296 297 294 293 289 285 283 284 284 294 295 295 294 297 307 315 315 317 326 330 333 334 335 332 331 330 329 330 330 331 331 331 331 331 337 340 342 343 343 343 344 346 348 348 347 345 344 344 343 343 343 340 337 335 334 332 330 329 327 325 325 325 324 324 323 324 324 322 319 320 322 323 322 321 321 323 327 319 320 320 321 321 321 320 320 320 320 319 320 319 319 318 318 319
298 297 297 297 292 293 289 288 285 284 283 285 289 296 299 295 298 305 312 313 315 322 329 332 333 334 333 333 332 332 332 332 332 332 333 334 336 338 340 341 343 345 346 345 346 349 349 348 346 345 343 343 343 344 339 336 334 334 333 331 329 327 327 325 325 324 324 323 323 323 322 322 321 323 324 322 320 321 322 319 319 318 320 321 320 321 322 321 320 321 323 320 320 318 318 317 318
300 298 297 295 293 286 289 291 287 286 284 286 285 293 294 300 300 309 314 314 316 323 328 331 334 334 334 333 332 332 331 331 332 333 334 334 336 337 339 340 341 342 343 345 346 347 345 344 344 341 340 338 338 337 336 334 334 333 332 331 330 328 327 325 324 323 324 323 322 322 322 322 321 323 320 320 320 321 321 319 318 318 317 318 320 320 320 320 320 319 320 319 320 319 318 318 316
296 295 292 294 295 293 293 292 291 290 284 284 285 286 290 297 305 311 314 316 320 327 328 331 334 335 334 333 332 332 332 332 333 334 335 335 335 336 337 339 340 340 341 341 339 337 338 339 340 341 339 338 336 336 335 334 334 333 332 331 328 325 325 326 325 324 325 323 323 326 322 321 322 320 319 319 319 320 319 320 319 322 318 320 320 319 321 320 322 320 320 320 320 320 319 318 321
291 293 294 293 293 294 291 289 289 289 289 286 287 287 290 299 315 315 317 319 324 330 332 333 334 335 334 334 333 333 332 333 333 334 335 335 335 335 335 336 337 337 337 336 336 337 337 338 338 338 338 336 336 336 336 335 334 333 332 328 324 325 325 325 324 324 324 322 324 323 321 322 319 319 319 319 319 319 320 319 318 320 319 319 319 320 321 321 321 319 320 320 319 319 319 318 317
Wind_Speed
6 5 2 3 3 1 1 3 1 1 2 3 2 1 1 1 1 2 2 0 0 1 2 1 1 3 3 3 6 3 2 6 5 8 5 2 1 7 8 8 8 10 9 7 6 6 7 10 12 12 12 12 12 12 11 11 11 10 10 9 9 9 8 8 8 7 7 7 6 6 5 5 5 5 5 5 5 5 5 4 3 3 3 3 3 3 3 4 4 4 4 4 3 4 4 4 4
4 3 3 1 1 1 1 0 2 0 2 3 2 1 1 3 1 2 5 4 2 1 1 3 3 1 4 6 2 1 1 2 0 1 1 1 5 4 4 9 10 11 8 7 6 5 5 7 13 12 12 13 12 11 11 11 10 10 10 9 9 8 8 8 7 7 6 7 6 6 5 4 3 4 3 4 4 3 3 3 2 1 1 2 2 3 3 4 4 4 4 4 4 4 4 4 4
3 4 3 3 2 2 2 1 0 1 4 3 1 1 2 1 3 4 4 4 3 1 1 2 3 2 0 2 1 2 3 1 2 3 2 5 8 3 5 7 9 10 9 6 6 6 5 6 12 12 12 12 10 6 7 9 9 9 10 9 8 8 8 8 8 7 6 5 6 5 5 4 3 4 3 3 3 3 2 2 1 1 1 2 3 3 3 3 4 4 4 4 4 3 3 3 4
4 3 3 1 1 1 1 2 2 3 3 2 2 1 1 3 6 6 4 5 3 1 0 2 3 0 2 1 2 2 0 1 1 5 4 7 2 6 7 8 8 7 7 6 5 6 5 8 12 12 11 11 10 7 6 6 6 9 9 9 8 8 7 7 7 6 5 4 4 4 4 5 4 4 3 3 2 2 2 1 1 1 2 2 3 3 4 4 4 4 4 4 4 4 3 4 4
3 2 3 2 1 1 1 1 2 1 2 3 5 2 3 3 5 3 1 2 3 1 1 1 1 0 1 1 1 0 2 0 2 4 2 1 5 7 8 9 8 8 7 6 6 5 5 11 10 9 10 10 9 8 6 7 7 7 8 8 8 7 7 6 6 6 5 5 4 4 4 4 3 4 4 2 2 1 0 2 2 3 3 3 3 3 3 4 4 4 4 5 5 6 6 5 5
3 2 0 1 1 1 1 2 3 2 2 1 3 4 4 4 3 3 2 3 3 2 3 2 2 2 0 0 2 1 3 2 2 1 5 3 9 8 9 9 8 7 6 5 4 4 4 11 10 9 11 10 10 10 8 7 8 7 8 8 8 7 7 6 6 6 5 5 4 4 4 4 3 3 2 1 1 1 2 3 3 3 3 3 3 3 4 5 5 6 6 7 7 8 8 8 8
1 1 2 1 1 1 3 2 2 1 2 2 2 4 6 4 3 1 2 1 0 1 2 2 2 2 2 1 1 1 2 1 3 1 4 8 10 9 9 8 8 6 6 5 4 4 5 12 11 11 10 10 11 10 10 9 9 8 8 7 7 7 7 7 6 6 5 5 5 4 3 3 2 2 1 1 2 3 4 4 5 5 5 5 5 5 6 8 8 8 8 8 8 9 10 9 9
1 1 1 2 0 1 2 0 1 1 0 1 1 4 4 4 2 2 2 1 1 1 1 2 2 2 1 3 1 1 1 2 1 8 9 9 10 9 8 8 8 6 6 4 4 4 7 13 12 11 11 10 11 10 10 8 8 7 7 7 8 7 7 7 7 7 6 5 4 3 3 2 1 2 4 3 2 4 4 5 5 5 6 7 6 7 8 8 7 7 7 7 8 9 9 9 8
2 1 0 1 2 2 3 2 1 1 0 1 0 2 3 3 4 3 3 2 1 1 2 1 1 2 1 1 0 2 1 2 4 10 10 10 11 10 7 8 9 7 6 5 5 5 3 10 12 13 12 12 11 11 10 9 9 8 7 7 7 8 7 7 6 5 5 3 3 3 4 2 2 2 4 2 4 4 5 6 6 7 7 8 8 8 8 8 8 8 7 7 8 8 8 8 8
1 1 1 1 2 5 2 2 4 1 1 1 2 2 3 2 3 1 2 0 2 1 2 0 1 0 1 2 1 1 0 4 7 8 8 9 9 8 8 8 8 9 7 5 4 4 3 9 13 13 12 12 11 11 10 9 9 8 9 7 7 7 6 6 5 4 4 4 3 2 2 2 1 3 3 4 4 5 6 8 9 9 9 9 9 9 9 9 8 8 7 7 8 8 8 9 8
2 1 0 1 4 3 2 0 0 1 0 2 2 2 3 2 2 1 2 2 0 2 1 2 1 3 2 1 1 2 1 7 10 9 7 8 8 9 7 7 7 7 7 6 5 3 3 4 12 13 12 12 11 10 10 9 9 8 7 7 6 6 6 5 5 5 4 4 2 2 2 2 2 3 3 4 6 7 8 9 10 12 13 11 10 9 9 9 9 8 8 8 8 8 8 8 8
3 2 2 4 2 2 1 3 2 2 2 1 2 2 2 4 2 2 2 4 2 1 2 4 2 4 2 1 0 2 1 6 8 8 8 7 7 6 5 5 6 5 6 6 5 3 3 2 4 9 12 12 11 10 10 9 9 8 7 7 7 6 5 4 4 3 2 1 1 3 4 2 2 3 5 6 7 8 8 8 9 10 13 14 10 9 9 9 9 8 8 8 8 9 9 9 9
2 0 3 4 0 0 1 3 2 1 1 3 4 2 4 4 5 6 4 2 1 3 3 5 3 1 1 1 2 1 5 4 5 8 9 8 7 6 6 6 6 5 6 6 6 5 4 3 3 3 6 11 10 9 8 8 7 7 7 7 8 6 5 4 2 2 2 3 4 3 2 3 4 5 5 7 8 8 8 8 8 7 10 14 8 8 7 7 8 8 8 9 9 9 9 9 9
1 0 1 1 0 1 1 2 1 1 4 4 3 2 6 4 5 5 6 4 4 5 2 6 3 2 1 1 0 2 3 2 5 7 7 7 6 6 8 6 6 6 5 5 5 4 4 4 2 3 3 4 3 6 8 8 8 9 9 8 7 5 4 4 3 4 4 4 4 5 4 4 5 5 5 7 8 8 6 8 9 9 9 10 9 8 7 8 8 8 8 9 9 9 9 9 9
2 1 2 3 1 1 1 4 6 3 6 4 3 5 3 4 3 5 9 7 9 3 1 2 4 3 4 5 3 5 6 5 7 8 8 7 8 7 7 6 6 4 3 3 2 3 4 4 3 3 3 3 3 4 3 6 10 10 8 6 5 5 4 5 5 6 5 5 6 6 6 6 6 5 4 5 8 9 8 9 8 7 8 9 8 7 7 8 8 9 9 9 9 9 9 9 9
2 1 2 2 1 2 2 1 1 1 7 5 4 5 6 1 3 6 6 5 1 1 2 3 0 2 2 6 4 5 9 8 7 9 9 8 7 6 6 6 5 4 3 3 3 2 3 3 3 3 3 4 3 3 1 1 7 9 7 6 6 6 6 4 2 3 5 6 6 6 6 4 4 3 3 2 8 10 10 8 9 7 7 8 8 7 7 8 9 9 10 10 9 9 9 8 8
1 1 1 2 2 2 2 3 6 4 5 4 3 5 6 4 2 2 1 2 3 3 2 1 3 1 1 2 2 8 10 10 10 11 10 7 7 6 5 5 4 3 3 3 3 3 3 4 3 3 2 3 3 2 1 1 1 7 5 4 2 1 2 1 4 1 2 4 4 6 5 3 3 2 2 2 5 5 7 7 7 7 7 8 8 7 7 8 9 10 10 8 8 9 9 9 9
1 0 3 1 3 3 5 7 9 2 4 4 7 8 7 5 2 2 4 0 1 1 4 1 1 1 0 1 5 10 12 14 13 13 10 8 6 6 6 5 5 6 5 4 3 3 4 3 4 4 3 3 3 3 2 2 1 1 5 5 3 1 1 4 2 1 2 3 5 4 3 2 2 2 2 3 3 4 4 6 6 6 7 8 8 8 8 8 9 8 8 8 9 9 9 5 5
1 1 1 5 4 6 6 7 8 2 4 5 7 6 8 7 8 3 3 1 3 2 3 0 1 2 7 6 8 12 12 12 12 12 13 11 9 9 7 6 6 5 6 5 4 5 4 4 3 4 4 4 4 3 3 2 5 4 5 3 1 2 3 2 2 1 1 3 3 3 2 2 2 2 2 3 3 4 4 6 7 7 6 6 8 7 7 7 8 8 8 8 8 8 5 4 4
3 1 3 6 6 3 5 5 8 6 2 5 6 5 7 3 7 3 3 2 3 8 6 4 4 4 7 6 9 10 12 12 12 12 13 11 9 10 9 8 8 8 7 6 6 4 5 5 4 4 4 4 4 4 3 4 8 2 2 3 3 3 3 1 1 1 2 3 3 3 3 2 2 2 4 5 4 2 3 5 6 5 5 6 8 5 7 7 8 7 8 8 6 4 4 4 4
2 2 4 4 2 2 4 7 7 5 2 3 5 2 4 4 4 5 3 2 6 8 9 13 14 10 10 10 11 10 11 12 11 11 11 10 8 7 9 10 9 7 5 5 5 6 6 5 4 4 4 4 4 4 3 4 8 5 1 0 1 0 2 2 1 2 4 3 2 2 2 2 2 2 1 1 1 1 3 4 4 4 3 5 7 5 4 4 4 5 5 5 5 5 5 5 5
2 8 4 3 1 2 5 8 7 5 2 4 3 6 7 3 1 6 8 8 8 9 12 11 9 9 13 13 13 10 11 13 12 11 12 12 12 10 6 4 3 4 5 6 7 7 7 6 6 5 5 5 5 5 5 4 6 7 6 5 5 3 4 4 3 2 1 2 2 1 2 0 2 3 4 4 4 4 4 4 4 4 4 4 4 4 4 4 4 4 4 4 4 4 4 4 4
4 4 8 9 7 4 2 3 6 7 3 4 5 6 3 7 2 6 8 12 9 2 2 12 8 9 10 11 12 12 12 13 13 13 13 12 10 9 8 7 8 9 8 8 7 7 7 6 7 6 6 5 5 4 4 4 4 5 6 6 5 4 3 2 0 1 2 2 2 1 3 3 3 4 4 4 4 4 5 4 4 4 4 4 4 3 4 4 3 4 4 4 4 5 5 4 4
3 6 2 5 5 10 3 2 6 6 9 9 3 3 5 4 8 3 10 13 12 5 3 5 5 7 8 12 12 15 14 14 13 12 13 14 14 13 11 11 9 6 7 8 8 7 8 9 7 7 6 6 5 5 5 4 4 4 4 4 3 3 3 3 2 2 3 4 4 4 3 3 4 4 4 4 4 4 4 4 4 4 4 4 3 3 4 4 4 4 4 5 5 5 5 4 4
6 8 6 5 2 4 3 4 5 5 5 2 3 2 7 8 5 1 11 15 12 2 5 7 9 9 8 12 12 11 11 10 10 10 7 6 8 9 8 7 8 8 9 9 8 8 9 8 8 8 7 7 5 5 5 4 4 4 3 3 3 3 3 3 3 3 3 3 4 4 3 3 4 4 4 4 4 5 4 4 4 4 4 4 3 4 4 4 4 4 4 4 4 5 4 4 4
8 14 3 4 2 1 3 3 4 6 1 2 2 7 3 2 5 11 14 8 5 5 6 8 9 9 10 11 13 12 12 13 10 11 11 7 7 8 8 8 8 10 11 10 9 9 8 8 9 9 8 7 6 6 5 5 4 4 4 3 3 3 3 3 4 4 3 4 4 3 3 3 4 4 4 3 5 4 4 4 4 4 4 3 4 4 3 3 3 4 4 5 5 4 4 4 3
8 11 10 6 6 1 1 5 4 4 2 4 6 5 3 3 4 9 4 8 7 7 6 7 10 10 11 11 11 11 12 13 13 9 7 7 8 10 10 9 10 11 9 9 9 8 8 8 8 8 7 7 5 6 5 5 4 4 4 3 3 3 3 3 4 4 3 3 3 3 3 3 3 4 4 4 5 4 4 4 4 3 4 4 3 3 3 3 3 2 3 4 4 4 4 3 3
4 9 4 2 3 2 2 1 1 3 3 5 5 4 1 2 3 11 9 3 10 9 8 8 8 9 9 11 11 9 9 8 8 10 13 12 10 10 10 10 11 9 10 11 9 7 8 9 8 8 7 7 7 6 5 5 4 4 4 4 3 4 4 4 4 4 4 4 4 4 4 4 3 4 5 5 5 4 4 4 4 4 4 4 3 3 4 3 3 3 3 3 3 3 3 3 2
2 6 4 3 4 2 2 5 3 5 3 5 4 3 9 3 8 21 9 4 9 9 9 9 8 7 7 8 9 8 10 8 8 10 13 11 10 10 12 11 11 11 8 10 9 8 9 9 8 8 7 7 7 7 5 4 4 4 4 4 4 4 4 4 4 4 4 4 3 4 4 4 4 5 5 5 4 5 4 4 4 4 4 4 4 5 4 4 4 4 4 4 4 4 3 3 3
3 3 2 2 2 4 7 1 2 6 2 8 6 3 9 11 19 13 4 7 6 7 7 8 7 6 6 7 8 7 6 8 9 10 10 10 10 11 12 11 11 10 8 5 6 9 7 6 6 6 7 7 8 6 5 5 5 5 4 5 4 5 4 5 4 4 4 4 4 5 5 4 4 4 5 5 4 4 4 4 4 5 5 5 4 5 5 4 4 4 5 4 4 4 4 4 4
1 1 3 1 1 5 3 2 4 4 3 10 4 3 11 12 12 7 3 8 10 8 8 8 8 7 7 7 7 9 9 10 11 9 9 11 10 10 12 10 11 8 5 7 11 11 9 8 7 7 8 8 7 6 6 5 5 6 5 5 5 5 4 5 4 4 4 4 4 5 5 5 5 5 4 5 5 4 4 4 4 4 4 4 5 4 4 4 4 4 4 4 3 4 3 3 4
2 2 3 4 3 6 6 2 7 9 0 3 6 5 14 16 14 4 9 8 8 8 8 9 9 9 8 8 8 9 10 9 8 9 10 11 10 10 11 11 10 9 10 10 9 8 9 9 9 8 9 9 7 7 6 6 6 6 5 5 5 5 5 5 4 4 4 4 4 5 5 5 5 5 5 4 5 4 4 4 4 4 6 5 5 5 5 6 5 4 4 3 4 4 3 5 3
4 1 4 3 1 6 4 4 8 6 4 2 9 8 4 10 4 3 3 9 10 7 6 7 9 10 10 9 9 8 8 9 9 10 10 10 9 9 9 9 10 12 10 10 10 10 9 9 10 9 10 10 8 7 7 7 7 6 6 5 6 5 5 5 4 4 4 4 4 5 5 5 5 5 5 5 5 4 4 5 5 5 5 5 5 5 5 4 5 4 5 4 3 3 4 4 4
3 1 3 4 5 3 4 5 2 5 7 5 7 4 14 13 4 3 2 7 6 6 7 8 8 8 10 9 9 9 9 10 12 12 12 11 9 9 8 8 10 10 9 10 11 12 12 10 9 8 8 8 7 7 7 7 7 7 6 5 5 6 6 4 4 4 4 4 5 5 4 5 5 5 5 4 5 4 4 4 4 5 5 5 5 5 5 4 4 4 4 5 4 4 4 4 4
4 4 3 7 3 5 11 4 2 8 4 5 6 9 18 20 13 2 4 6 7 9 6 7 7 9 9 10 10 11 10 11 14 12 11 11 10 9 7 7 7 8 7 9 9 9 7 8 7 8 8 8 7 7 8 7 7 6 6 6 6 6 5 4 4 4 4 4 5 4 5 5 5 5 5 5 5 4 5 4 4 4 4 5 5 5 5 5 5 4 5 5 4 5 4 3 2
6 6 4 3 8 6 4 8 3 11 5 9 7 12 17 19 18 7 3 5 8 7 4 5 8 7 9 10 11 10 12 14 11 8 9 9 9 10 8 7 7 7 7 8 9 8 8 8 7 7 7 8 7 7 7 7 7 8 7 5 6 5 5 5 4 4 4 5 4 5 5 5 4 5 5 5 5 4 5 4 4 4 4 5 6 6 5 5 5 6 6 5 6 5 5 5 4
4 2 1 7 6 10 9 7 4 10 4 11 16 15 14 17 18 8 4 4 5 6 7 7 8 10 10 10 11 13 13 15 7 9 10 11 11 10 9 8 8 8 7 8 9 9 10 11 10 10 8 8 8 8 8 9 9 7 6 8 7 6 6 5 5 4 5 5 5 5 5 5 4 4 4 5 5 4 5 5 5 4 4 5 5 4 3 3 3 3 3 4 6 6 6 5 4
3 4 4 10 3 8 12 5 4 8 7 8 7 8 14 19 18 5 2 3 11 12 11 9 12 11 10 11 12 13 13 3 7 8 9 10 9 10 9 8 9 10 9 9 10 11 10 10 11 10 9 9 9 9 9 9 9 10 9 8 7 6 6 6 5 4 5 5 5 5 5 5 5 4 3 4 4 5 5 5 5 5 4 4 4 4 4 4 5 5 3 4 5 5 4 4 3
1 3 3 5 8 6 14 6 2 7 5 7 4 9 15 16 14 6 6 9 9 10 13 15 14 12 11 11 12 11 7 8 7 8 10 11 12 12 11 10 11 13 13 13 12 11 10 10 9 9 9 9 9 9 9 9 8 8 9 7 8 5 2 3 4 4 4 5 5 5 5 5 5 5 4 4 5 5 5 5 5 4 5 4 5 6 5 6 5 5 5 3 3 3 3 4 5
2 1 3 8 4 3 9 6 3 3 3 2 2 6 9 8 7 12 12 11 12 7 10 10 9 13 14 16 14 12 10 8 10 11 12 11 11 13 12 12 12 10 10 10 10 12 10 10 9 9 9 9 8 9 8 8 9 8 7 9 6 5 5 4 5 4 4 5 4 4 4 5 5 5 6 6 6 5 5 5 4 5 5 4 5 5 5 6 5 5 5 4 3 4 4 6 5
3 5 5 6 7 5 8 6 4 1 2 2 3 3 7 6 6 7 10 2 8 11 3 5 7 10 9 5 7 10 13 11 9 9 11 12 13 14 14 12 10 11 11 13 13 12 10 13 12 12 10 10 8 9 9 9 9 9 8 8 7 8 6 5 6 4 4 4 4 4 4 5 6 6 6 6 6 6 5 5 5 4 5 5 5 5 5 4 4 3 3 5 5 4 5 4 6
5 6 11 10 7 8 7 3 2 4 3 6 1 4 5 5 6 10 12 5 6 3 4 10 9 7 5 10 11 8 8 9 12 13 14 15 15 12 11 13 14 13 13 14 14 14 13 12 12 12 10 10 10 11 11 10 10 11 11 11 10 8 8 8 9 9 7 6 6 4 4 5 7 6 5 6 6 6 6 5 5 5 5 5 5 5 4 4 5 5 5 4 5 4 5 6 5
1 8 8 7 6 5 6 3 5 1 1 4 0 5 6 7 7 6 6 6 12 4 5 8 4 6 8 10 6 8 9 8 8 9 9 12 13 13 13 14 16 16 15 12 12 12 13 13 14 14 13 11 11 12 13 11 11 11 15 15 13 13 12 7 7 7 8 6 5 5 5 5 6 7 6 5 6 5 5 5 5 5 5 4 3 6 6 5 4 4 3 5 4 3 2 6 4
3 4 2 0 1 3 5 2 3 1 1 2 3 3 2 6 11 3 7 6 10 11 9 8 5 4 8 6 4 5 8 10 12 13 13 13 14 16 18 18 15 17 14 12 12 12 14 14 14 14 12 12 11 12 13 13 13 12 13 12 11 11 11 11 9 8 7 7 7 6 5 5 5 5 6 5 5 5 5 5 5 5 5 4 4 5 5 4 3 4 4 4 4 5 5 7 5
5 5 3 5 4 5 3 2 2 1 0 4 2 0 0 3 10 6 4 6 10 10 9 9 7 5 3 1 3 7 10 12 13 13 14 15 16 16 15 15 14 11 12 15 14 13 12 12 13 12 12 12 12 14 14 13 12 13 12 11 10 8 8 8 7 7 7 7 9 6 6 5 5 5 5 6 5 5 4 5 5 5 5 4 3 4 4 4 5 5 5 6 7 5 5 3 5
5 1 3 4 2 3 1 1 1 2 2 5 3 3 2 6 6 8 4 1 7 9 10 11 7 5 3 7 7 9 9 9 11 14 15 15 15 15 13 10 11 14 12 11 11 11 12 12 14 15 14 12 11 14 14 14 13 12 11 10 12 9 8 8 8 8 8 8 9 8 7 5 5 5 5 5 6 5 5 5 5 6 5 4 4 5 5 5 5 6 5 5 5 7 4 6 6
1 3 4 5 4 5 3 5 1 2 1 2 3 1 1 3 3 1 4 5 6 10 9 5 4 2 2 4 7 8 9 10 10 11 11 13 11 10 10 13 13 11 11 12 13 13 13 14 15 17 17 13 13 14 14 15 13 12 11 11 11 11 11 12 10 9 8 8 10 9 7 6 5 5 5 4 5 5 5 4 5 5 4 4 5 6 5 4 4 5 5 6 6 6 6 6 6
1 0 0 6 8 8 2 4 4 0 3 4 2 2 3 2 4 5 4 8 6 7 10 13 9 4 2 4 5 8 9 10 10 9 9 7 5 7 9 11 12 12 11 13 12 13 14 15 15 17 15 15 13 13 13 13 12 12 10 12 12 11 12 11 13 13 11 11 10 10 7 7 5 5 5 5 5 5 5 4 5 5 5 5 5 4 4 4 4 4 5 5 5 5 5 6 6
4 2 3 1 5 5 3 4 3 3 1 0 2 1 1 3 4 4 7 6 8 8 6 8 8 4 2 3 6 7 8 8 8 8 7 7 9 10 12 11 10 13 14 14 15 14 14 15 17 17 16 15 13 12 12 11 10 10 11 12 11 10 9 8 8 10 10 10 9 10 8 7 6 6 5 6 5 5 5 5 5 5 5 5 4 4 4 4 5 5 5 5 5 5 5 6 6
4 4 4 4 1 1 2 4 1 5 5 4 1 0 2 3 3 3 2 5 5 6 6 4 3 3 3 3 3 3 5 7 8 8 8 9 10 10 10 10 11 10 12 13 14 14 13 12 13 14 14 15 15 16 16 14 11 8 7 9 10 11 10 8 7 8 8 7 7 9 9 8 7 7 6 6 5 4 4 4 5 5 4 4 4 4 4 4 5 5 5 5 5 4 5 7 6
7 3 8 7 7 3 2 2 4 5 4 4 4 2 1 1 1 1 2 3 3 3 4 3 5 4 3 3 3 3 3 4 3 3 5 7 7 7 8 8 9 10 11 12 11 12 10 12 14 18 18 17 18 19 19 21 18 14 9 7 8 9 10 10 7 6 7 8 6 8 8 7 7 6 6 5 5 5 5 5 4 5 4 5 4 4 4 5 5 5 5 4 3 3 5 5 5
1 3 5 5 4 7 5 5 3 1 1 3 1 2 3 3 2 2 2 1 5 7 8 9 10 8 7 8 7 6 5 4 3 3 3 3 2 1 4 6 8 9 12 11 13 12 13 14 17 19 21 21 20 20 18 17 16 16 15 10 10 10 9 9 9 7 5 6 6 8 9 7 6 6 5 5 5 6 5 5 4 5 4 4 5 5 4 4 4 5 4 4 5 2 5 6 4
2 3 3 6 3 7 3 2 1 1 4 4 0 6 3 7 2 2 2 1 4 5 6 9 8 5 4 6 5 5 5 4 3 2 2 1 3 4 6 8 9 10 11 13 13 12 13 13 14 16 14 13 17 19 18 16 14 14 16 17 12 11 12 13 11 11 10 7 6 8 9 8 7 6 6 4 5 5 5 5 5 4 4 4 5 5 5 5 5 4 4 4 5 4 6 5 3
6 1 6 1 1 4 3 2 2 4 1 5 2 1 6 4 1 4 7 8 5 7 7 6 8 8 11 7 6 6 6 5 4 3 2 2 3 4 4 4 6 8 10 9 5 2 3 5 3 8 8 11 16 17 15 15 14 12 13 15 14 13 12 11 11 11 10 9 4 5 8 7 7 6 6 4 5 5 4 5 5 4 3 3 5 4 4 5 5 4 3 3 1 2 5 4 4
3 3 3 2 1 0 3 2 1 1 2 3 3 1 4 4 4 4 5 4 5 6 6 9 10 9 6 5 6 7 7 7 7 8 8 11 8 6 4 4 3 4 2 1 1 2 3 2 3 3 5 9 14 15 17 18 17 13 11 13 14 11 10 11 11 10 11 10 6 5 7 6 6 7 7 6 5 5 5 4 4 4 3 3 3 4 4 4 4 4 3 3 3 4 5 5 4
0 1 2 1 3 3 2 4 3 3 1 1 5 3 3 4 3 1 1 2 1 2 6 6 5 4 3 4 5 6 6 7 7 7 8 10 9 9 8 6 6 5 5 4 3 4 5 6 6 5 2 3 9 8 15 18 9 9 10 11 12 12 11 11 11 10 10 9 8 5 6 7 7 6 7 6 6 5 4 5 4 4 3 2 3 3 3 2 3 4 2 3 2 4 5 5 4
0 1 2 1 2 2 3 1 1 2 4 3 1 3 4 4 5 4 2 1 2 5 5 2 2 2 2 3 4 6 6 7 6 7 9 10 9 9 8 7 7 7 7 6 5 4 4 7 7 5 2 5 1 22 22 17 16 16 15 15 14 14 15 12 12 11 10 9 8 6 7 6 5 7 7 7 6 5 5 5 5 3 4 3 3 2 0 0 1 1 2 2 2 3 4 3 4
3 7 2 4 0 3 3 8 2 2 2 3 3 5 7 9 3 5 3 1 5 5 7 4 2 2 3 3 4 5 6 7 6 8 10 9 9 8 8 6 6 7 6 5 3 6 9 8 6 4 8 5 6 12 1 15 18 16 16 15 14 13 12 11 13 11 10 10 9 8 7 6 8 7 7 7 6 5 5 5 5 5 5 4 3 4 2 2 2 1 1 2 3 4 4 3 3
Wind_Direction
103 86 106 85 64 54 63 338 99 320 66 59 126 328 160 345 82 123 132 116 241 256 210 117 183 152 168 203 198 195 199 148 199 133 212 245 73 147 145 134 134 134 140 149 152 160 160 165 163 164 167 165 159 161 156 156 158 156 153 150 150 148 146 144 144 142 137 133 130 126 123 134 130 129 126 121 115 110 105 105 89 73 65 48 36 40 37 23 34 20 27 24 9 12 7 16 12
97 86 63 44 83 47 340 280 108 54 84 108 33 281 127 318 321 193 164 200 210 217 207 173 227 251 25 23 80 124 316 221 258 192 284 89 105 108 140 139 142 141 142 146 149 151 154 170 166 168 169 166 164 160 161 159 161 161 155 153 154 153 150 146 144 146 143 136 130 126 128 126 129 123 130 122 117 114 108 96 91 64 43 5 13 4 12 355 11 2 5 6 5 5 356 351 352
93 93 53 16 29 84 123 34 317 120 123 117 197 208 350 248 213 195 201 211 225 253 82 142 125 114 330 356 311 155 253 330 45 78 66 134 131 173 142 139 139 136 139 145 147 150 157 168 171 171 174 167 162 131 156 159 162 161 159 156 157 156 151 148 149 151 147 140 137 140 144 126 141 139 139 142 133 125 120 109 114 264 324 342 359 351 358 355 6 359 354 345 341 340 329 325 322
88 38 105 50 335 55 76 20 88 120 96 163 70 253 203 203 216 198 228 241 257 60 72 157 139 199 136 281 222 78 263 35 179 134 137 173 221 142 141 138 130 127 133 142 144 151 150 175 175 173 180 164 158 146 141 139 140 161 162 158 160 160 154 152 154 154 150 145 143 148 155 156 160 156 164 179 146 139 172 189 319 349 359 333 342 345 356 349 335 327 322 314 304 304 301 303 298
75 77 84 75 103 357 88 152 137 83 130 179 171 215 216 222 220 185 266 267 286 216 256 118 64 310 167 175 114 135 250 216 65 179 119 165 111 140 138 133 131 134 138 140 142 142 151 168 169 173 175 168 155 159 157 154 160 166 167 161 160 159 155 153 161 163 162 159 160 166 170 170 177 170 195 175 167 196 64 1 334 344 344 337 341 330 320 316 313 308 304 306 302 298 300 296 292
65 51 13 96 82 213 43 33 18 26 226 165 146 214 202 222 198 192 288 307 254 223 204 144 174 207 8 265 161 212 195 110 178 216 142 146 133 143 138 132 132 134 133 127 131 126 147 170 168 175 171 171 165 169 162 168 177 177 171 165 161 157 154 159 164 164 161 163 169 170 171 175 180 202 203 212 337 9 331 323 309 313 313 313 300 303 301 297 292 296 302 301 300 300 297 293 286
131 40 356 52 65 90 109 102 75 86 297 155 212 154 192 214 230 145 295 348 25 25 167 185 110 94 68 303 32 252 147 87 101 209 129 134 128 138 139 134 131 129 128 132 120 133 159 171 169 176 171 173 174 171 173 178 174 180 169 166 160 158 158 157 161 162 162 168 168 167 173 175 206 248 265 338 322 317 307 312 306 308 302 298 299 300 308 308 308 306 305 301 304 300 295 292 290
51 49 319 93 301 57 42 120 76 184 315 166 201 148 195 213 149 153 221 102 238 124 169 142 43 106 253 18 150 310 25 354 207 112 116 130 131 136 142 140 131 132 133 128 130 145 177 175 171 172 175 174 175 173 176 179 177 177 167 163 158 157 155 156 156 160 164 163 174 178 207 214 327 317 321 274 311 328 319 313 303 294 293 297 306 308 309 306 310 308 306 308 305 302 298 298 295
12 73 255 72 38 34 58 31 310 217 285 52 110 233 188 194 160 143 205 236 310 242 194 234 157 104 242 33 128 287 326 23 104 118 127 134 139 143 145 146 139 136 137 140 146 155 165 177 170 173 177 177 174 175 181 178 179 177 162 164 159 156 158 155 152 156 171 179 191 198 234 219 259 291 260 336 310 302 303 304 299 291 290 302 305 303 304 306 308 308 305 301 300 298 300 301 303
6 42 315 114 122 63 37 345 73 199 205 252 179 220 173 167 173 163 185 224 216 128 236 256 156 134 76 125 353 30 25 113 115 110 135 141 141 144 146 146 143 143 144 144 146 150 134 187 172 174 175 178 177 175 181 175 172 178 167 173 163 162 161 165 160 164 194 182 222 204 274 287 337 301 316 313 313 307 301 299 301 302 303 302 304 307 305 302 302 303 303 303 304 302 307 308 311
309 357 297 54 32 60 91 108 270 356 287 340 309 249 212 135 129 185 206 205 36 176 277 126 48 138 87 246 211 252 295 142 129 147 152 144 140 145 142 138 141 146 146 146 147 149 159 189 179 174 174 178 176 176 175 173 172 172 171 169 168 188 171 186 170 204 207 207 215 289 281 263 273 281 309 311 302 295 308 316 316 321 314 309 302 301 305 303 301 308 306 305 306 311 315 318 318
334 357 10 88 54 143 216 141 165 264 307 6 250 226 189 157 104 168 207 153 221 260 195 135 221 136 82 12 281 315 119 158 151 146 140 134 134 129 124 122 133 137 141 144 145 149 152 180 172 177 176 174 176 173 174 172 173 170 172 166 182 189 176 188 183 218 229 248 258 238 242 247 288 302 295 296 298 328 330 329 330 330 316 295 296 306 309 304 303 301 307 315 320 324 326 326 322
295 54 62 75 213 287 125 107 227 241 330 264 199 234 140 137 188 197 182 162 149 165 269 206 128 79 145 163 258 354 150 196 142 141 138 139 134 125 111 119 131 134 143 149 149 152 139 143 162 181 182 176 173 173 171 170 174 167 182 177 192 187 182 193 199 191 230 238 232 244 243 263 281 289 292 305 356 344 335 323 304 305 291 288 296 299 299 303 310 316 325 326 327 328 324 320 319
193 232 120 111 54 125 123 182 324 199 257 245 224 165 163 157 229 190 140 173 214 186 235 170 125 135 95 58 315 180 205 170 135 129 126 120 118 118 119 123 133 141 146 153 154 144 132 146 153 168 177 178 160 168 180 177 181 180 182 191 187 192 192 208 217 209 224 231 246 245 253 255 265 278 321 355 337 322 303 294 304 303 296 293 304 303 314 324 327 327 327 329 328 325 323 323 324
245 110 79 119 43 41 234 132 207 186 253 201 224 147 190 227 144 156 172 175 232 196 50 130 161 117 221 151 257 209 183 168 133 124 116 106 111 114 121 124 128 131 127 132 129 133 143 149 156 169 146 188 146 169 169 188 186 193 186 185 178 195 207 208 207 214 214 229 236 246 254 267 274 294 2 335 308 291 287 290 289 284 286 289 304 322 327 328 327 332 334 334 331 327 324 325 327
211 76 86 105 189 151 248 187 123 82 258 191 222 164 170 272 165 153 241 169 234 124 128 189 198 191 189 167 219 181 147 138 130 113 112 110 107 103 111 115 113 117 122 130 149 149 143 138 150 162 137 160 144 141 150 188 209 193 185 184 191 200 207 202 236 246 251 243 253 272 277 291 335 5 337 281 275 280 283 278 271 276 291 305 311 322 328 331 333 335 335 332 333 334 333 338 343
41 73 21 38 229 158 246 170 150 219 238 227 152 159 173 220 204 207 197 114 138 191 190 184 182 95 175 204 198 132 135 129 120 119 114 118 121 116 102 107 115 127 155 158 166 164 142 135 135 131 145 149 146 137 108 116 228 201 192 202 153 97 108 143 207 216 327 346 335 302 310 9 360 13 358 273 276 284 279 290 301 304 305 308 317 321 331 335 338 340 334 346 3 6 13 17 5
45 37 108 272 203 171 215 187 189 219 167 196 175 190 172 219 164 224 102 201 187 50 191 324 42 34 112 97 111 128 137 135 139 134 138 138 142 130 135 144 152 173 170 172 186 172 155 144 145 141 144 167 155 146 144 125 26 99 45 51 22 33 267 177 154 69 351 359 323 327 335 309 11 320 291 286 273 277 285 302 314 317 318 318 320 326 336 340 351 0 12 27 17 15 15 14 355
126 77 90 241 183 234 173 201 196 129 238 175 185 182 186 211 149 196 157 244 177 195 242 159 184 39 78 102 124 132 142 142 149 149 149 156 157 154 156 158 170 169 182 180 189 185 176 158 160 157 163 172 161 159 146 124 70 41 32 17 335 249 245 124 71 7 11 289 284 289 291 291 257 247 260 265 246 273 301 315 316 311 314 325 326 345 353 11 29 19 19 24 26 19 14 360 349
203 123 245 249 219 250 223 183 201 208 159 161 170 202 197 196 167 108 201 183 168 205 200 218 217 180 141 141 136 142 150 155 155 156 159 161 160 160 162 169 179 191 187 184 179 184 180 175 180 172 170 171 165 163 137 111 85 37 3 13 343 1 359 304 79 223 285 268 261 251 246 254 262 277 293 297 308 347 318 340 334 315 321 357 13 41 22 22 21 11 10 20 22 16 2 354 345
174 166 219 236 209 230 235 191 214 209 160 169 177 106 209 219 178 155 170 141 240 236 210 190 199 177 158 156 151 152 156 160 162 161 161 162 164 172 175 179 182 181 177 162 174 190 188 183 176 184 174 173 164 168 152 134 113 116 139 315 92 337 284 333 286 228 224 225 241 269 286 273 287 303 300 312 10 1 33 30 12 14 30 31 32 26 25 13 17 10 1 9 16 3 355 352 349
137 223 236 249 301 239 255 193 183 172 138 135 143 163 226 103 202 196 155 190 223 213 216 208 201 157 154 159 160 158 164 168 168 167 169 169 171 176 170 158 142 150 161 178 191 188 194 187 182 185 176 181 178 172 161 166 136 128 148 184 170 192 192 202 203 218 338 334 331 292 246 283 55 60 51 44 48 49 55 46 32 32 45 39 23 33 22 20 18 8 3 5 354 353 355 338 328
253 268 240 239 230 251 280 173 176 149 140 157 176 212 84 167 245 206 182 208 233 222 222 197 176 162 159 150 152 163 171 175 175 175 172 172 175 176 174 174 174 174 182 191 186 192 189 188 187 177 184 181 182 168 156 163 148 148 146 162 156 150 176 168 143 24 11 13 354 25 99 94 76 69 54 54 55 58 66 47 41 37 44 39 16 46 39 22 10 3 357 355 349 360 352 339 321
213 263 268 290 172 218 208 189 152 172 153 205 168 107 194 169 242 180 211 229 233 66 129 172 130 129 140 150 167 173 178 177 180 180 178 177 177 180 177 179 189 179 178 181 187 189 187 192 184 177 184 180 182 169 163 172 155 149 167 166 110 145 116 96 34 49 28 28 31 26 43 63 82 75 65 66 62 65 63 43 42 43 41 38 21 43 41 18 10 359 357 0 4 357 347 337 324
214 257 267 270 175 225 182 145 164 184 206 68 123 163 219 196 202 66 227 231 231 140 86 108 125 134 155 161 171 172 176 179 177 179 180 185 187 179 180 185 178 174 184 185 185 184 192 186 179 183 184 185 177 168 175 173 154 149 143 125 135 142 101 91 101 73 48 39 40 33 40 62 67 80 81 80 80 69 53 45 43 44 40 28 22 40 36 16 7 356 354 1 358 351 347 335 340
223 238 255 303 271 221 140 128 174 189 163 126 125 238 280 311 340 280 254 244 228 117 100 126 126 145 165 177 175 171 179 183 176 178 184 178 175 174 190 190 181 185 191 182 179 190 184 180 182 185 185 181 174 168 177 165 165 154 144 132 151 119 119 110 99 80 66 65 49 40 48 82 68 94 101 81 89 75 58 52 53 45 44 22 27 37 7 18 355 347 357 6 357 354 344 334 349
194 231 237 264 276 257 149 181 202 185 214 168 199 236 269 321 115 282 242 223 136 137 133 143 146 163 177 178 180 178 177 183 183 172 169 177 179 186 192 192 191 194 182 186 185 184 179 174 186 184 180 181 164 177 173 168 157 153 145 125 122 117 122 108 90 94 74 67 57 45 44 56 80 91 96 89 81 77 64 58 51 38 47 23 21 20 356 359 334 353 0 349 352 346 334 325 339
189 203 217 273 339 152 111 155 172 121 267 172 195 260 309 276 196 241 252 128 146 149 154 154 160 169 179 181 180 182 181 178 171 172 182 183 189 189 191 191 197 190 188 191 188 172 170 182 181 180 176 177 176 176 169 157 159 148 134 126 120 115 113 103 91 79 70 50 36 42 45 45 77 83 90 86 85 80 72 63 44 44 27 7 15 3 352 350 333 326 329 349 325 355 334 336 346
176 161 166 301 340 303 209 197 197 154 254 142 134 327 284 201 233 233 224 115 141 157 163 165 167 169 176 181 177 182 186 171 173 188 195 191 186 188 193 198 190 190 202 188 175 167 178 176 175 179 170 174 173 173 168 155 137 130 134 139 130 117 108 96 87 82 71 51 49 48 51 60 57 88 81 79 82 82 78 64 42 29 6 0 360 356 343 347 356 358 355 356 359 16 356 10 23
108 45 134 349 2 325 267 123 112 146 246 133 118 314 265 234 230 240 110 147 148 145 163 169 164 161 172 174 180 181 183 177 186 196 194 192 190 193 195 198 195 190 183 175 159 179 175 170 171 168 173 174 179 162 153 140 137 134 139 132 125 111 106 105 98 84 70 57 60 60 65 71 75 70 90 83 78 81 66 56 43 22 5 0 0 2 0 345 360 10 352 354 10 17 11 15 43
174 259 65 155 348 268 291 197 144 162 172 157 121 210 278 274 243 243 173 152 161 182 175 167 166 162 168 177 180 184 192 197 192 190 194 196 195 196 198 193 194 192 166 166 182 181 171 172 168 170 175 173 172 160 150 144 140 137 136 126 120 120 113 106 94 82 75 71 78 70 75 78 68 74 72 90 74 70 66 47 31 6 347 9 2 358 356 345 14 9 353 356 359 24 20 31 48
7 33 300 330 188 276 295 297 161 194 28 169 131 260 251 270 287 205 194 174 168 193 181 170 165 169 168 179 185 187 193 193 195 191 194 197 196 198 196 194 189 183 182 183 179 168 175 172 173 168 170 170 168 159 145 142 140 135 128 124 119 116 112 103 96 92 94 87 83 82 79 78 73 72 71 78 80 60 68 54 22 11 9 7 11 5 10 8 353 7 4 2 22 25 32 40 28
354 71 266 284 250 258 352 264 195 177 121 230 179 230 313 294 272 314 208 172 179 183 183 177 169 170 175 178 188 191 188 191 199 196 193 194 203 201 198 191 187 189 184 177 176 172 173 175 173 168 170 171 161 149 134 136 133 132 127 123 121 117 110 106 96 100 97 89 80 87 84 82 77 77 74 74 85 70 52 42 18 17 10 25 23 13 15 2 15 7 6 16 50 49 38 52 46
309 45 222 215 247 294 290 302 294 172 145 196 234 250 254 249 259 44 126 174 167 194 191 187 176 175 181 179 186 193 199 197 201 200 195 190 197 201 198 192 190 187 187 184 180 175 177 175 172 170 164 162 154 146 143 137 135 126 122 126 124 116 113 111 111 112 103 97 100 98 98 99 94 90 84 82 88 81 68 48 23 20 21 33 31 22 11 2 21 18 25 19 27 43 41 41 53
269 301 308 299 264 233 254 291 264 148 220 191 213 244 261 265 261 225 183 170 182 206 188 187 184 183 180 187 189 197 200 207 211 201 189 186 187 197 192 188 186 186 186 185 183 179 164 167 161 167 159 156 147 137 135 128 121 112 115 122 119 118 114 117 124 110 113 112 110 117 108 106 108 96 89 84 78 66 55 44 46 25 40 47 43 29 14 5 12 19 49 18 18 48 57 23 35
237 240 237 252 300 287 236 254 187 167 193 225 207 222 244 259 270 243 215 176 192 213 171 171 197 192 188 190 197 197 204 214 209 189 178 182 187 184 182 178 183 186 184 181 180 173 168 165 161 161 160 153 140 135 136 132 131 138 130 119 114 127 136 133 122 126 132 124 123 117 117 115 118 110 99 99 91 90 83 74 78 56 55 62 49 36 11 5 1 7 27 36 21 29 44 23 27
278 344 293 265 263 286 278 266 207 181 165 223 220 229 245 263 264 264 194 181 208 209 202 199 196 197 195 198 200 204 206 215 179 181 173 180 185 183 179 175 178 180 183 181 178 180 174 173 164 170 164 157 153 151 153 149 147 141 144 155 153 159 151 144 136 139 134 135 134 128 123 119 111 97 92 88 92 105 101 104 89 67 61 71 70 52 15 358 11 14 15 35 42 39 23 2 20
244 283 308 290 223 279 279 286 151 191 156 258 225 235 252 254 263 281 225 176 228 208 209 208 209 201 201 201 204 206 211 146 147 168 177 173 179 181 177 178 174 174 187 181 185 184 180 174 173 168 163 166 166 165 162 161 162 165 161 164 153 157 152 151 146 158 143 138 137 131 125 117 94 85 95 89 79 88 91 80 71 59 56 65 79 64 42 38 26 27 13 50 39 63 40 358 334
248 226 245 305 273 239 280 300 180 191 175 271 124 207 243 252 267 292 229 217 238 213 203 210 202 202 203 204 210 208 187 188 168 177 173 181 180 179 180 185 188 188 181 183 184 176 178 176 175 168 172 171 171 167 164 164 162 157 154 154 152 125 76 102 117 130 128 125 128 134 128 116 105 82 74 84 84 74 79 78 68 69 60 57 60 44 36 39 31 29 30 81 37 35 65 17 18
206 259 294 262 255 40 308 315 52 182 165 263 187 206 271 286 272 262 251 217 242 232 217 219 196 207 204 204 201 199 195 174 182 178 182 181 180 184 185 188 186 183 181 183 179 180 176 176 172 173 176 176 172 172 166 157 151 142 134 135 125 123 144 120 97 100 106 106 106 108 103 109 96 87 85 92 88 79 79 81 75 66 61 63 79 64 42 40 32 28 27 28 108 61 24 28 24
208 198 220 260 282 241 184 267 23 13 319 106 66 359 320 281 281 284 274 237 262 259 198 232 215 217 215 203 201 199 195 184 176 178 180 180 182 192 191 182 176 186 187 184 182 181 179 176 173 173 176 177 171 172 160 148 134 123 117 102 104 99 88 112 119 111 135 135 120 116 122 98 85 83 85 93 100 95 85 84 76 62 63 52 66 61 46 35 37 54 45 58 53 119 73 61 37
304 209 197 221 238 270 262 294 73 34 313 267 108 21 304 287 288 256 275 353 265 274 224 236 215 213 190 205 205 196 197 179 182 187 187 186 188 184 186 183 182 189 191 190 185 182 176 173 171 171 174 174 172 168 161 155 154 148 146 145 152 153 152 159 163 160 160 156 158 155 111 94 96 90 91 97 104 106 97 94 85 72 59 50 54 66 56 41 31 36 29 62 70 42 111 77 75
46 277 185 214 236 238 274 285 101 280 316 306 76 155 267 325 303 271 310 319 287 322 258 263 218 213 216 217 189 190 184 182 189 194 188 189 191 184 188 190 191 190 195 182 183 183 179 175 174 174 174 173 170 166 166 161 160 165 167 168 166 167 163 173 154 148 145 147 138 138 119 82 95 106 95 104 105 107 107 97 92 83 71 60 57 53 39 25 17 31 36 62 55 66 78 81 55
254 245 65 40 277 260 259 210 166 211 270 349 33 118 168 320 291 312 304 310 302 310 296 291 285 241 226 224 179 181 185 185 189 194 195 196 191 189 192 194 192 195 181 175 182 180 179 177 175 178 177 174 172 166 171 171 168 173 171 171 169 166 166 162 158 150 142 140 135 133 107 86 86 96 108 102 112 116 112 98 96 88 74 54 62 58 52 21 35 33 49 70 84 69 80 97 82
229 291 21 323 287 262 263 260 250 191 106 297 309 224 246 263 268 319 1 343 335 318 315 303 288 250 249 306 190 181 190 194 192 195 198 196 197 200 196 193 196 183 179 183 182 178 174 175 178 180 182 178 172 170 173 177 174 175 174 168 168 168 155 146 142 142 144 143 130 128 109 103 93 86 98 113 116 117 104 105 96 88 78 63 77 73 54 44 47 59 56 58 64 57 54 88 86
281 205 88 84 74 68 53 270 293 311 15 292 239 205 176 277 287 341 330 30 330 305 303 298 303 288 191 174 178 180 194 202 206 203 200 201 201 200 194 181 177 192 187 179 172 168 175 174 180 184 185 182 174 174 176 178 178 171 172 173 163 157 147 137 144 147 148 144 136 134 119 115 117 104 104 109 108 101 107 106 94 90 86 69 52 57 73 55 48 59 61 78 77 80 59 78 85
120 1 311 332 19 0 8 68 84 44 7 260 246 290 121 285 290 327 8 318 265 301 309 307 343 313 196 178 170 177 190 204 207 210 209 208 203 188 171 182 187 181 184 177 177 176 175 180 183 186 188 181 177 177 177 178 176 176 173 169 161 155 156 150 149 149 147 146 142 136 128 127 123 121 113 91 101 109 95 90 100 91 76 73 64 51 58 74 76 84 85 82 74 87 84 85 80
147 206 204 18 323 355 17 334 38 197 280 261 248 199 180 183 294 317 246 272 278 275 294 313 328 292 225 184 185 187 196 202 206 206 210 200 171 174 174 184 182 181 177 184 181 179 181 183 185 187 186 184 179 177 177 178 177 178 171 165 162 162 163 164 159 156 160 153 147 135 127 114 115 119 114 110 100 99 99 84 86 88 80 79 75 77 78 98 99 84 68 70 77 79 91 85 83
103 83 55 302 274 21 295 11 317 252 195 254 334 232 53 231 215 265 301 304 323 333 308 300 296 276 249 222 200 197 204 205 200 204 197 189 190 179 185 182 173 182 190 188 185 183 185 186 187 185 187 182 178 172 176 175 179 181 174 167 155 157 165 166 158 152 155 149 145 133 128 123 128 122 130 117 115 119 112 105 101 98 90 86 93 84 85 92 93 83 81 77 85 80 79 89 88
105 154 145 100 309 38 285 276 225 299 293 257 324 330 256 241 296 233 268 327 338 346 1 357 11 358 328 319 313 272 226 211 206 196 196 196 192 189 182 177 181 187 194 193 189 187 188 185 183 186 184 181 180 174 169 172 180 184 174 168 162 159 157 155 154 153 149 139 145 136 130 135 143 144 141 135 142 119 101 116 113 102 98 102 101 100 94 88 83 83 80 75 65 71 80 78 85
203 147 150 182 141 159 256 230 267 251 220 278 288 25 240 15 213 215 245 280 339 9 17 22 42 27 27 15 6 348 304 286 302 256 217 209 201 182 174 171 176 189 196 198 195 192 180 182 183 190 190 188 183 183 179 177 172 161 156 165 160 157 149 147 144 145 138 137 145 129 123 130 137 140 136 143 122 117 122 119 115 106 105 100 90 79 63 63 72 78 72 82 69 61 74 77 70
227 160 86 91 223 153 236 207 166 250 333 333 305 232 181 167 243 271 292 291 34 17 18 28 26 19 21 33 16 350 333 316 322 317 323 349 14 97 127 156 178 191 201 201 200 189 185 190 194 193 195 191 189 186 184 176 169 157 146 156 165 151 140 130 127 121 111 124 136 129 124 125 128 128 127 124 126 129 130 120 102 106 107 100 84 84 85 84 86 89 78 80 74 47 80 72 75
244 103 195 212 182 114 86 66 18 57 52 258 205 325 311 299 331 206 143 200 51 21 23 35 27 13 35 40 3 343 332 333 323 294 242 127 120 138 152 165 183 195 201 207 203 193 192 191 198 207 211 202 198 191 179 165 160 160 156 151 153 147 146 141 135 132 129 136 156 140 130 127 128 130 132 121 127 124 126 126 116 105 97 108 90 80 89 91 81 74 76 74 72 62 73 70 51
97 158 235 180 115 114 128 234 346 62 157 262 30 242 308 24 253 322 11 17 16 23 17 28 40 27 36 7 349 336 332 326 332 350 18 106 126 134 128 155 190 204 210 214 213 186 205 211 197 228 237 226 215 203 171 150 147 149 155 151 150 149 142 132 132 134 134 137 154 130 119 127 141 138 131 127 128 130 124 113 114 105 103 87 93 93 93 90 86 77 78 63 21 82 90 69 53
161 211 199 97 272 274 330 88 310 297 296 289 322 306 256 175 244 358 353 343 354 3 11 28 25 26 17 342 331 333 333 341 357 2 19 31 35 48 80 115 172 211 242 44 62 163 182 134 150 242 272 284 283 247 165 141 148 163 160 141 138 137 133 133 134 135 136 139 142 136 125 131 127 132 130 130 131 130 121 106 120 117 111 117 84 72 68 67 82 97 82 75 35 55 73 79 57
342 101 69 345 110 164 130 204 173 115 259 48 292 34 246 218 219 185 250 252 50 64 40 42 35 19 333 332 338 334 339 343 346 358 31 45 47 48 54 57 49 50 62 82 99 85 123 150 129 113 75 268 316 344 103 113 119 121 135 134 131 134 135 134 132 136 137 135 134 146 131 133 151 136 132 136 139 145 143 128 124 134 117 76 69 63 70 95 116 108 120 95 37 79 57 49 66
318 12 325 330 1 216 102 52 93 220 177 182 195 318 283 273 215 186 226 238 156 140 126 115 73 10 2 346 341 335 332 334 344 3 39 49 55 52 54 56 60 66 75 81 92 111 69 54 74 95 118 34 130 130 144 142 159 163 152 142 135 135 133 131 133 139 133 136 159 156 152 156 148 135 139 142 146 157 158 148 142 105 86 92 115 118 341 85 3 90 102 154 107 102 88 35 58
163 171 202 184 143 273 290 276 7 88 104 208 132 238 270 270 182 218 239 213 151 154 133 135 149 61 22 10 348 336 322 326 342 11 41 53 57 58 55 54 61 67 71 82 72 68 73 75 62 34 38 54 126 316 19 164 153 141 141 130 125 125 128 127 134 144 145 159 156 162 162 163 149 141 149 151 156 162 161 148 121 111 107 101 130 181 119 198 271 38 166 214 139 114 111 80 61